KINEIS-1D

Satellite information

Favourite Embed

Satellite Type and Status

PAYLOADIN ORBIT

Key statistics

Satellite KINEIS-1D at a glance.

Uptime

383

Days in orbit

Revolutions

≈ 14.8

Per day

Orbit

SSO

Sun Synchronous Orbit

Inclination

98.0

Latest

Satellite identification and parameters

Extended collection of information and parameters for KINEIS-1D.

Object identification

Identified? True

Debris? False

Object name: KINEIS-1D

International designator: 2024-114D

Object number (NORAD): 60082

Object ID (CCSDS): 60082

Country: FRANCE (FR)

Current information (Y/N): Y

RCS size: SMALL

Orbital parameters

Period: 97.587 minutes

Inclination: 98.0095 deg

SMA: 7021.343 km

Apoapsis: 644.125 km

Periapsis: 642.291 km

RAAN: 207.521 deg

Eccentricy: 0.0001306

Argument of periapsis: 152.2313 deg

Mean anomaly: 207.8966 deg

Mean motion: 14.75613124 rev/day

Mean motion (dot): 0.00000533 rev/day2

B* drag term: 0.000085545 1/REarth

Two-line elements (TLE)

Creation date: July 8, 2025, 2:27 a.m.

Reference frame: TEME

Reference center: EARTH

Epoch: July 7, 2025, 10:07 p.m. UTC

TLE line 0: 0 KINEIS-1D

TLE line 1: 1 60082U 24114D 25188.92221697 .00000533 00000-0 85545-4 0 9992

TLE line 2: 2 60082 98.0095 207.5210 0001306 152.2313 207.8966 14.75613124 56343

Live tracking on map

Real-time ground track for satellite KINEIS-1D.

In-orbit conjunctions

There are no conjunctions computed for KINEIS-1D, at the moment. Check back to stay up to date, as we update our databases every day.

Go to all conjunctions

Associated space launch

First batch of five satellites for the French Kinéis IoT constellation designed to operate with 25 nanosatellites of 30 kg each.

KINEIS-1D was lifted into orbit during the mission ‘Electron | No Time Toulouse (Kinéis 1-5)’, on board a Electron space rocket.

The launch took place on June 20, 2024, 6:13 p.m. from Rocket Lab Launch Complex 1B.

For more information about the launch, click the button.

Launch to space Electron | No Time Toulouse (Kinéis 1-5)
Electron | No Time Toulouse (Kinéis 1-5)

Agency: Kinéis

Status: Launch Successful

Launch date: June 20, 2024, 6:13 p.m. UTC

Rocket: Electron

Launch pad: Rocket Lab Launch Complex 1B

Location: Rocket Lab Launch Complex 1, Mahia Peninsula, New Zealand

...

Latest news about this satellite

News about space launch
Rocket Report: Electron turns 50, China’s Moon launcher breathes fire

"Most rocket startups are still stuck in the long process of reengineering."

News about space launch
Rocket Lab launches first Kinéis satellites on 50th Electron

Rocket Lab successfully launched the first set of satellites for a French startup June 20 on the 50th flight of its Electron rocket.

News about space launch
Rocket Lab successfully launches its 50th Electron rocket

Rocket Lab's Electron rocket made history by reaching its 50th launch faster than any other commercially developed orbital launch vehicle. Liftoff from New Zealand took place at 6:13 a.m. NZST on Friday, June 21 (2:13 p.m. EDT, 1813 UTC on Thursday, June ...


Newsletter sign-up

Weekly statistics, charts and insights to help you stay on top of the space industry.